{"data":{"norad_id":52348,"intl_designator":"2022-045T","name":"STARLINK-3829","alt_names":[],"object_type":"PAYLOAD","status":"ACTIVE","operator":null,"country":"US","launch_date":"2022-04-29","launch_site_code":"AFETR","launch_vehicle":null,"mission":null,"orbit_class":"UNKNOWN","rcs_meters":null,"size_class":null,"mass_kg":null,"dimensions":null,"purposes":["comms"],"wikipedia_slug":null,"has_3d_model":false,"image_url":null,"decayed_at":null,"tle_current":{"epoch":"2026-09-20T00:27:16.348608Z","epoch_age_seconds":101243,"freshness":"FRESH","line1":"1 52348U 22045T   26263.01893922  .00004703  00000+0  14552-3 0  9991","line2":"2 52348  53.1631  33.1595 0000853  89.0126 271.0975 15.35426412245309","mean_motion":15.35426412,"eccentricity":8.53e-5,"inclination_deg":53.1631,"raan_deg":33.1595,"arg_perigee_deg":89.0126,"mean_anomaly_deg":271.0975,"bstar":0.00014552,"rev_number":24530,"period_min":93.785022111499,"perigee_km":459.07096343838,"apogee_km":460.23749062171,"semimajor_km":6837.79122703,"source":"CELESTRAK","updated_at":"2026-09-20T09:00:40.024375Z"}}}